DIRECTV 4S (26985 NORAD) Tracking and Keplerian Element Data

This shows tracking and keplerian element data for the satellite.

Feedback or suggestion? Click here.




ElementValue
Catalog26985
NameDIRECTV 4S
Epoch Orbit3127
Epoch Day365.84489465
Epoch Year2020
RAAN93.6847
Inclination1.1812
Eccentricity0.0002383
Argument of Perigee281.1639
Mean Anonmoly216.8663
Mean Motion0.99266525
Decay Rate-5.9E-07
L11 26985U 01052A 20365.84489465 -.00000059 00000-0 00000-0 0 9997
L22 26985 1.1812 93.6847 0002383 281.1639 216.8663 0.99266525 31277



Live tracking and technical data element details for DIRECTV 4S (NORAD 26985). DIRECTV 4S can be tracked NOW for your location showing map with azimuth and elevation plus other details from your city location.







IsCatalogInMostPopularTable: catalog: 26985, numindb: 538
Update: records affected: 1



GetName: 26985 DIRECTV 4S

Hit Count: updated at: Thu, 22 May 2025 04:24:00 GMT